Time,TemperatureF,DewpointF,PressureIn,WindDirection,WindDirectionDegrees,WindSpeedMPH,WindSpeedGustMPH,Humidity,HourlyPrecipIn,Conditions,Clouds,dailyrainin,SoftwareType,DateUTC
2013-03-14 00:00:00,35.5,26.0,30.32,SSE,152,3.0,8.0,68,0.00,CLR,SKC,0.00,WeatherDisplay:10.37,2013-03-14 05:00:00,
2013-03-14 00:05:00,35.5,26.0,30.32,SE,138,3.0,7.0,68,0.00,CLR,SKC,0.00,WeatherDisplay:10.37,2013-03-14 05:05:00,
2013-03-14 00:10:00,35.7,25.8,30.32,SSE,154,5.0,8.0,67,0.00,CLR,SKC,0.00,WeatherDisplay:10.37,2013-03-14 05:10:00,
2013-03-14 00:15:00,35.8,25.9,30.32,SE,143,3.0,8.0,67,0.00,CLR,SKC,0.00,WeatherDisplay:10.37,2013-03-14 05:15:00,
2013-03-14 00:20:00,35.9,26.0,30.32,SE,142,1.0,6.0,67,0.00,CLR,SKC,0.00,WeatherDisplay:10.37,2013-03-14 05:20:00,
2013-03-14 00:25:00,36.1,25.8,30.31,SSE,154,3.0,10.0,66,0.00,CLR,SKC,0.00,WeatherDisplay:10.37,2013-03-14 05:25:00,
2013-03-14 00:30:00,36.2,25.9,30.31,SSE,158,2.0,10.0,66,0.00,CLR,SKC,0.00,WeatherDisplay:10.37,2013-03-14 05:30:00,
2013-03-14 00:35:00,36.2,25.9,30.31,SSE,159,3.0,9.0,66,0.00,CLR,SKC,0.00,WeatherDisplay:10.37,2013-03-14 05:35:00,
2013-03-14 00:40:00,36.2,25.9,30.31,SSE,155,2.0,3.0,66,0.00,CLR,SKC,0.00,WeatherDisplay:10.37,2013-03-14 05:40:00,
2013-03-14 00:45:00,36.2,25.9,30.31,SE,138,2.0,3.0,66,0.00,CLR,SKC,0.00,WeatherDisplay:10.37,2013-03-14 05:45:00,
2013-03-14 00:50:00,36.2,25.9,30.31,SE,138,2.0,3.0,66,0.00,CLR,SKC,0.00,WeatherDisplay:10.37,2013-03-14 05:50:00,
2013-03-14 00:55:00,36.2,25.9,30.31,SE,138,2.0,3.0,66,0.00,CLR,SKC,0.00,WeatherDisplay:10.37,2013-03-14 05:55:00,
2013-03-14 01:00:00,36.2,25.9,30.31,SE,138,2.0,3.0,66,0.00,CLR,SKC,0.00,WeatherDisplay:10.37,2013-03-14 06:00:00,
2013-03-14 01:05:00,36.2,25.9,30.31,SE,138,2.0,3.0,66,0.00,CLR,SKC,0.00,WeatherDisplay:10.37,2013-03-14 06:05:00,
2013-03-14 01:10:00,36.2,25.9,30.31,SE,138,2.0,3.0,66,0.00,CLR,SKC,0.00,WeatherDisplay:10.37,2013-03-14 06:10:00,
2013-03-14 01:15:00,36.2,25.9,30.31,SE,138,2.0,3.0,66,0.00,CLR,SKC,0.00,WeatherDisplay:10.37,2013-03-14 06:15:00,
2013-03-14 01:20:00,36.2,25.9,30.31,SE,138,2.0,3.0,66,0.00,CLR,SKC,0.00,WeatherDisplay:10.37,2013-03-14 06:20:00,
2013-03-14 01:25:00,36.2,25.9,30.31,SE,138,2.0,3.0,66,0.00,CLR,SKC,0.00,WeatherDisplay:10.37,2013-03-14 06:25:00,
2013-03-14 01:30:00,36.2,25.9,30.31,SE,138,2.0,3.0,66,0.00,CLR,SKC,0.00,WeatherDisplay:10.37,2013-03-14 06:30:00,
2013-03-14 01:35:00,36.2,25.9,30.31,SE,138,2.0,3.0,66,0.00,CLR,SKC,0.00,WeatherDisplay:10.37,2013-03-14 06:35:00,
2013-03-14 01:40:00,36.2,25.9,30.31,SE,138,2.0,3.0,66,0.00,CLR,SKC,0.00,WeatherDisplay:10.37,2013-03-14 06:40:00,
2013-03-14 01:50:00,36.2,25.9,30.31,SE,138,2.0,3.0,66,0.00,CLR,SKC,0.00,WeatherDisplay:10.37,2013-03-14 06:50:00,
2013-03-14 01:55:00,36.2,25.9,30.31,SE,138,2.0,3.0,66,0.00,CLR,SKC,0.00,WeatherDisplay:10.37,2013-03-14 06:55:00,
2013-03-14 02:00:00,36.2,25.9,30.31,SE,138,2.0,3.0,66,0.00,CLR,SKC,0.00,WeatherDisplay:10.37,2013-03-14 07:00:00,
2013-03-14 02:05:00,36.2,25.9,30.31,SE,138,2.0,3.0,66,0.00,CLR,SKC,0.00,WeatherDisplay:10.37,2013-03-14 07:05:00,
2013-03-14 02:10:00,36.2,25.9,30.31,SE,138,2.0,3.0,66,0.00,CLR,SKC,0.00,WeatherDisplay:10.37,2013-03-14 07:10:00,
2013-03-14 02:15:00,36.2,25.9,30.31,SE,138,2.0,3.0,66,0.00,CLR,SKC,0.00,WeatherDisplay:10.37,2013-03-14 07:15:00,
2013-03-14 02:20:00,36.2,25.9,30.31,SE,138,2.0,3.0,66,0.00,CLR,SKC,0.00,WeatherDisplay:10.37,2013-03-14 07:20:00,
2013-03-14 02:25:00,36.2,25.9,30.31,SE,138,2.0,3.0,66,0.00,CLR,SKC,0.00,WeatherDisplay:10.37,2013-03-14 07:25:00,
2013-03-14 02:30:00,36.2,25.9,30.31,SE,138,2.0,3.0,66,0.00,CLR,SKC,0.00,WeatherDisplay:10.37,2013-03-14 07:30:00,
2013-03-14 02:35:00,36.2,25.9,30.31,SE,138,2.0,3.0,66,0.00,CLR,SKC,0.00,WeatherDisplay:10.37,2013-03-14 07:35:00,
2013-03-14 02:40:00,36.2,25.9,30.31,SE,138,2.0,3.0,66,0.00,CLR,SKC,0.00,WeatherDisplay:10.37,2013-03-14 07:40:00,
2013-03-14 02:45:00,36.2,25.9,30.31,SE,138,2.0,3.0,66,0.00,CLR,SKC,0.00,WeatherDisplay:10.37,2013-03-14 07:45:00,
2013-03-14 02:50:00,36.2,25.9,30.31,SE,138,2.0,3.0,66,0.00,CLR,SKC,0.00,WeatherDisplay:10.37,2013-03-14 07:50:00,
2013-03-14 02:55:00,36.2,25.9,30.31,SE,138,2.0,3.0,66,0.00,CLR,SKC,0.00,WeatherDisplay:10.37,2013-03-14 07:55:00,
2013-03-14 03:00:00,36.2,25.9,30.31,SE,138,2.0,3.0,66,0.00,CLR,SKC,0.00,WeatherDisplay:10.37,2013-03-14 08:00:00,
2013-03-14 03:10:00,36.2,25.9,30.31,SE,138,2.0,3.0,66,0.00,CLR,SKC,0.00,WeatherDisplay:10.37,2013-03-14 08:10:00,
2013-03-14 03:15:00,36.2,25.9,30.31,SE,138,2.0,3.0,66,0.00,CLR,SKC,0.00,WeatherDisplay:10.37,2013-03-14 08:15:00,
2013-03-14 03:20:00,36.2,25.9,30.31,SE,138,2.0,3.0,66,0.00,CLR,SKC,0.00,WeatherDisplay:10.37,2013-03-14 08:20:00,
2013-03-14 03:25:00,36.2,25.9,30.31,SE,138,2.0,3.0,66,0.00,CLR,SKC,0.00,WeatherDisplay:10.37,2013-03-14 08:25:00,
2013-03-14 03:30:00,36.2,25.9,30.31,SE,138,2.0,3.0,66,0.00,CLR,SKC,0.00,WeatherDisplay:10.37,2013-03-14 08:30:00,
2013-03-14 03:35:00,36.2,25.9,30.31,SE,138,2.0,3.0,66,0.00,CLR,SKC,0.00,WeatherDisplay:10.37,2013-03-14 08:35:00,
2013-03-14 03:40:00,36.2,25.9,30.31,SE,138,2.0,3.0,66,0.00,CLR,SKC,0.00,WeatherDisplay:10.37,2013-03-14 08:40:00,
2013-03-14 03:45:00,36.2,25.9,30.31,SE,138,2.0,3.0,66,0.00,CLR,SKC,0.00,WeatherDisplay:10.37,2013-03-14 08:45:00,
2013-03-14 03:50:00,36.2,25.9,30.31,SE,138,2.0,3.0,66,0.00,CLR,SKC,0.00,WeatherDisplay:10.37,2013-03-14 08:50:00,
2013-03-14 03:55:00,36.2,25.9,30.31,SE,138,2.0,3.0,66,0.00,CLR,SKC,0.00,WeatherDisplay:10.37,2013-03-14 08:55:00,
2013-03-14 04:00:00,36.2,25.9,30.31,SE,138,2.0,3.0,66,0.00,CLR,SKC,0.00,WeatherDisplay:10.37,2013-03-14 09:00:00,
2013-03-14 04:05:00,36.2,25.9,30.31,SE,138,2.0,3.0,66,0.00,CLR,SKC,0.00,WeatherDisplay:10.37,2013-03-14 09:05:00,
2013-03-14 04:10:00,36.2,25.9,30.31,SE,138,2.0,3.0,66,0.00,CLR,SKC,0.00,WeatherDisplay:10.37,2013-03-14 09:10:00,
2013-03-14 04:15:00,36.2,25.9,30.31,SE,138,2.0,3.0,66,0.00,CLR,SKC,0.00,WeatherDisplay:10.37,2013-03-14 09:15:00,
2013-03-14 04:20:00,36.2,25.9,30.31,SE,138,2.0,3.0,66,0.00,CLR,SKC,0.00,WeatherDisplay:10.37,2013-03-14 09:20:00,
2013-03-14 04:25:00,36.2,25.9,30.31,SE,138,2.0,3.0,66,0.00,CLR,SKC,0.00,WeatherDisplay:10.37,2013-03-14 09:25:00,
2013-03-14 04:30:00,36.2,25.9,30.31,SE,138,2.0,3.0,66,0.00,CLR,SKC,0.00,WeatherDisplay:10.37,2013-03-14 09:30:00,
2013-03-14 04:35:00,36.2,25.9,30.31,SE,138,2.0,3.0,66,0.00,CLR,SKC,0.00,WeatherDisplay:10.37,2013-03-14 09:35:00,
2013-03-14 04:40:00,36.2,25.9,30.31,SE,138,2.0,3.0,66,0.00,CLR,SKC,0.00,WeatherDisplay:10.37,2013-03-14 09:40:00,
2013-03-14 04:45:00,36.2,25.9,30.31,SE,138,2.0,3.0,66,0.00,CLR,SKC,0.00,WeatherDisplay:10.37,2013-03-14 09:45:00,
2013-03-14 04:50:00,36.2,25.9,30.31,SE,138,2.0,3.0,66,0.00,CLR,SKC,0.00,WeatherDisplay:10.37,2013-03-14 09:50:00,
2013-03-14 04:55:00,36.2,25.9,30.31,SE,138,2.0,3.0,66,0.00,CLR,SKC,0.00,WeatherDisplay:10.37,2013-03-14 09:55:00,
2013-03-14 05:00:00,36.2,25.9,30.31,SE,138,2.0,3.0,66,0.00,CLR,SKC,0.00,WeatherDisplay:10.37,2013-03-14 10:00:00,
2013-03-14 05:05:00,36.2,25.9,30.31,SE,138,2.0,3.0,66,0.00,CLR,SKC,0.00,WeatherDisplay:10.37,2013-03-14 10:05:00,
2013-03-14 05:10:00,36.2,25.9,30.31,SE,138,2.0,3.0,66,0.00,CLR,SKC,0.00,WeatherDisplay:10.37,2013-03-14 10:10:00,
2013-03-14 05:15:00,36.2,25.9,30.31,SE,138,2.0,3.0,66,0.00,CLR,SKC,0.00,WeatherDisplay:10.37,2013-03-14 10:15:00,
2013-03-14 05:20:00,36.2,25.9,30.31,SE,138,2.0,3.0,66,0.00,CLR,SKC,0.00,WeatherDisplay:10.37,2013-03-14 10:20:00,
2013-03-14 05:25:00,36.2,25.9,30.31,SE,138,2.0,3.0,66,0.00,CLR,SKC,0.00,WeatherDisplay:10.37,2013-03-14 10:25:00,
2013-03-14 05:30:00,36.2,25.9,30.31,SE,138,2.0,3.0,66,0.00,CLR,SKC,0.00,WeatherDisplay:10.37,2013-03-14 10:30:00,
2013-03-14 05:35:00,36.2,25.9,30.31,SE,138,2.0,3.0,66,0.00,CLR,SKC,0.00,WeatherDisplay:10.37,2013-03-14 10:35:00,
2013-03-14 05:40:00,36.2,25.9,30.31,SE,138,2.0,3.0,66,0.00,CLR,SKC,0.00,WeatherDisplay:10.37,2013-03-14 10:40:00,
2013-03-14 05:45:00,36.2,25.9,30.31,SE,138,2.0,3.0,66,0.00,CLR,SKC,0.00,WeatherDisplay:10.37,2013-03-14 10:45:00,
2013-03-14 05:50:00,36.2,25.9,30.31,SE,138,2.0,3.0,66,0.00,CLR,SKC,0.00,WeatherDisplay:10.37,2013-03-14 10:50:00,
2013-03-14 05:55:00,36.2,25.9,30.31,SE,138,2.0,3.0,66,0.00,CLR,SKC,0.00,WeatherDisplay:10.37,2013-03-14 10:55:00,
2013-03-14 06:00:00,36.2,25.9,30.31,SE,138,2.0,3.0,66,0.00,CLR,SKC,0.00,WeatherDisplay:10.37,2013-03-14 11:00:00,
2013-03-14 06:05:00,36.2,25.9,30.31,SE,138,2.0,3.0,66,0.00,CLR,SKC,0.00,WeatherDisplay:10.37,2013-03-14 11:05:00,
2013-03-14 06:10:00,36.2,25.9,30.31,SE,138,2.0,3.0,66,0.00,CLR,SKC,0.00,WeatherDisplay:10.37,2013-03-14 11:10:00,
2013-03-14 06:15:00,36.2,25.9,30.31,SE,138,2.0,3.0,66,0.00,CLR,SKC,0.00,WeatherDisplay:10.37,2013-03-14 11:15:00,
2013-03-14 06:20:00,36.2,25.9,30.31,SE,138,2.0,3.0,66,0.00,CLR,SKC,0.00,WeatherDisplay:10.37,2013-03-14 11:20:00,
2013-03-14 06:25:00,36.2,25.9,30.31,SE,138,2.0,3.0,66,0.00,CLR,SKC,0.00,WeatherDisplay:10.37,2013-03-14 11:25:00,
2013-03-14 06:30:00,36.2,25.9,30.31,SE,138,2.0,3.0,66,0.00,CLR,SKC,0.00,WeatherDisplay:10.37,2013-03-14 11:30:00,
2013-03-14 06:35:00,36.2,25.9,30.31,SE,138,2.0,3.0,66,0.00,CLR,SKC,0.00,WeatherDisplay:10.37,2013-03-14 11:35:00,
2013-03-14 06:40:00,36.2,25.9,30.31,SE,138,2.0,3.0,66,0.00,CLR,SKC,0.00,WeatherDisplay:10.37,2013-03-14 11:40:00,
2013-03-14 06:45:00,36.2,25.9,30.31,SE,138,2.0,3.0,66,0.00,CLR,SKC,0.00,WeatherDisplay:10.37,2013-03-14 11:45:00,
2013-03-14 06:50:00,36.2,25.9,30.31,SE,138,2.0,3.0,66,0.00,CLR,SKC,0.00,WeatherDisplay:10.37,2013-03-14 11:50:00,
2013-03-14 06:55:00,36.2,25.9,30.31,SE,138,2.0,3.0,66,0.00,CLR,SKC,0.00,WeatherDisplay:10.37,2013-03-14 11:55:00,
2013-03-14 07:00:00,36.2,25.9,30.31,SE,138,2.0,3.0,66,0.00,CLR,SKC,0.00,WeatherDisplay:10.37,2013-03-14 12:00:00,
2013-03-14 07:05:00,36.2,25.9,30.31,SE,138,2.0,3.0,66,0.00,CLR,SKC,0.00,WeatherDisplay:10.37,2013-03-14 12:05:00,
2013-03-14 07:10:00,36.2,25.9,30.31,SE,138,2.0,3.0,66,0.00,CLR,SKC,0.00,WeatherDisplay:10.37,2013-03-14 12:10:00,
2013-03-14 07:15:00,36.2,25.9,30.31,SE,138,2.0,3.0,66,0.00,CLR,SKC,0.00,WeatherDisplay:10.37,2013-03-14 12:15:00,
2013-03-14 07:20:00,36.2,25.9,30.31,SE,138,2.0,3.0,66,0.00,CLR,SKC,0.00,WeatherDisplay:10.37,2013-03-14 12:20:00,
2013-03-14 07:25:00,36.2,25.9,30.31,SE,138,2.0,3.0,66,0.00,CLR,SKC,0.00,WeatherDisplay:10.37,2013-03-14 12:25:00,
2013-03-14 07:30:00,36.2,25.9,30.31,SE,138,2.0,3.0,66,0.00,CLR,SKC,0.00,WeatherDisplay:10.37,2013-03-14 12:30:00,
2013-03-14 07:35:00,36.2,25.9,30.31,SE,138,2.0,3.0,66,0.00,CLR,SKC,0.00,WeatherDisplay:10.37,2013-03-14 12:35:00,
2013-03-14 07:40:00,36.2,25.9,30.31,SE,138,2.0,3.0,66,0.00,CLR,SKC,0.00,WeatherDisplay:10.37,2013-03-14 12:40:00,
2013-03-14 07:45:00,36.2,25.9,30.31,SE,138,2.0,3.0,66,0.00,CLR,SKC,0.00,WeatherDisplay:10.37,2013-03-14 12:45:00,
2013-03-14 07:50:00,36.2,25.9,30.31,SE,138,2.0,3.0,66,0.00,CLR,SKC,0.00,WeatherDisplay:10.37,2013-03-14 12:50:00,
2013-03-14 07:55:00,36.2,25.9,30.31,SE,138,2.0,3.0,66,0.00,CLR,SKC,0.00,WeatherDisplay:10.37,2013-03-14 12:55:00,
2013-03-14 08:00:00,36.2,25.9,30.31,SE,138,2.0,3.0,66,0.00,CLR,SKC,0.00,WeatherDisplay:10.37,2013-03-14 13:00:00,
2013-03-14 08:05:00,36.2,25.9,30.31,SE,138,2.0,3.0,66,0.00,CLR,SKC,0.00,WeatherDisplay:10.37,2013-03-14 13:05:00,
2013-03-14 08:10:00,36.2,25.9,30.31,SE,138,2.0,3.0,66,0.00,CLR,SKC,0.00,WeatherDisplay:10.37,2013-03-14 13:10:00,
2013-03-14 08:15:00,36.2,25.9,30.31,SE,138,2.0,3.0,66,0.00,CLR,SKC,0.00,WeatherDisplay:10.37,2013-03-14 13:15:00,
2013-03-14 08:40:00,39.9,26.7,30.16,WSW,249,5.0,16.0,59,0.00,CLR,SKC,0.00,WeatherDisplay:10.37,2013-03-14 13:40:00,
2013-03-14 08:45:00,40.2,26.6,30.16,WSW,249,7.0,14.0,58,0.00,CLR,SKC,0.00,WeatherDisplay:10.37,2013-03-14 13:45:00,
2013-03-14 08:50:00,40.5,27.3,30.16,WSW,241,1.0,12.0,59,0.00,CLR,SKC,0.00,WeatherDisplay:10.37,2013-03-14 13:50:00,
2013-03-14 08:55:00,40.8,27.2,30.16,SW,222,2.0,12.0,58,0.00,CLR,SKC,0.00,WeatherDisplay:10.37,2013-03-14 13:55:00,
2013-03-14 09:00:00,41.2,27.5,30.16,WSW,239,6.0,16.0,58,0.00,CLR,SKC,0.00,WeatherDisplay:10.37,2013-03-14 14:00:00,
2013-03-14 09:05:00,41.6,27.9,30.15,SW,225,7.0,15.0,58,0.00,CLR,SKC,0.00,WeatherDisplay:10.37,2013-03-14 14:05:00,
2013-03-14 09:10:00,42.0,27.9,30.15,SSW,213,3.0,18.0,57,0.00,CLR,SKC,0.00,WeatherDisplay:10.37,2013-03-14 14:10:00,
2013-03-14 09:15:00,42.5,28.3,30.15,WSW,247,2.0,18.0,57,0.00,CLR,SKC,0.00,WeatherDisplay:10.37,2013-03-14 14:15:00,
2013-03-14 09:20:00,43.1,28.9,30.14,WSW,243,3.0,13.0,57,0.00,CLR,SKC,0.00,WeatherDisplay:10.37,2013-03-14 14:20:00,
2013-03-14 09:25:00,43.6,28.9,30.14,SW,230,12.0,24.0,56,0.00,CLR,SKC,0.00,WeatherDisplay:10.37,2013-03-14 14:25:00,
2013-03-14 09:30:00,44.0,29.3,30.14,SW,234,8.0,24.0,56,0.00,CLR,SKC,0.00,WeatherDisplay:10.37,2013-03-14 14:30:00,
2013-03-14 09:35:00,44.4,29.7,30.14,SW,217,8.0,14.0,56,0.00,CLR,SKC,0.00,WeatherDisplay:10.37,2013-03-14 14:35:00,
2013-03-14 09:40:00,44.8,30.0,30.14,WSW,238,5.0,15.0,56,0.00,CLR,SKC,0.00,WeatherDisplay:10.37,2013-03-14 14:40:00,
2013-03-14 09:45:00,45.1,30.3,30.14,West,266,9.0,18.0,56,0.00,CLR,SKC,0.00,WeatherDisplay:10.37,2013-03-14 14:45:00,
2013-03-14 09:50:00,45.5,30.7,30.14,WSW,254,3.0,16.0,56,0.00,CLR,SKC,0.00,WeatherDisplay:10.37,2013-03-14 14:50:00,
2013-03-14 09:55:00,46.0,31.6,30.14,WSW,257,5.0,10.0,57,0.00,CLR,SKC,0.00,WeatherDisplay:10.37,2013-03-14 14:55:00,
2013-03-14 10:00:00,46.0,31.2,30.14,West,261,7.0,15.0,56,0.00,CLR,SKC,0.00,WeatherDisplay:10.37,2013-03-14 15:00:00,
2013-03-14 10:05:00,46.3,31.9,30.14,WSW,251,7.0,8.0,57,0.00,CLR,SKC,0.00,WeatherDisplay:10.37,2013-03-14 15:05:00,
2013-03-14 10:10:00,46.4,32.0,30.13,SW,231,6.0,21.0,57,0.00,CLR,SKC,0.00,WeatherDisplay:10.37,2013-03-14 15:10:00,
2013-03-14 10:15:00,46.7,32.2,30.13,SW,226,8.0,21.0,57,0.00,CLR,SKC,0.00,WeatherDisplay:10.37,2013-03-14 15:15:00,
2013-03-14 10:20:00,47.0,32.6,30.13,WSW,239,7.0,15.0,57,0.00,CLR,SKC,0.00,WeatherDisplay:10.37,2013-03-14 15:20:00,
2013-03-14 10:25:00,47.5,33.0,30.12,WSW,238,8.0,12.0,57,0.00,CLR,SKC,0.00,WeatherDisplay:10.37,2013-03-14 15:25:00,
2013-03-14 10:30:00,48.0,33.5,30.13,SW,217,8.0,13.0,57,0.00,CLR,SKC,0.00,WeatherDisplay:10.37,2013-03-14 15:30:00,
2013-03-14 10:35:00,48.4,33.8,30.12,WSW,255,8.0,14.0,57,0.00,CLR,SKC,0.00,WeatherDisplay:10.37,2013-03-14 15:35:00,
2013-03-14 10:40:00,49.0,34.4,30.12,WSW,240,7.0,20.0,57,0.00,CLR,SKC,0.00,WeatherDisplay:10.37,2013-03-14 15:40:00,
2013-03-14 10:45:00,49.7,34.6,30.12,WSW,237,8.0,13.0,56,0.00,CLR,SKC,0.00,WeatherDisplay:10.37,2013-03-14 15:45:00,
2013-03-14 10:50:00,50.4,35.3,30.12,WSW,245,6.0,14.0,56,0.00,CLR,SKC,0.00,WeatherDisplay:10.37,2013-03-14 15:50:00,
2013-03-14 10:55:00,50.9,35.3,30.12,WSW,246,8.0,19.0,55,0.00,CLR,SKC,0.00,WeatherDisplay:10.37,2013-03-14 15:55:00,
2013-03-14 11:00:00,51.2,36.0,30.12,WSW,242,7.0,18.0,56,0.00,CLR,SKC,0.00,WeatherDisplay:10.37,2013-03-14 16:00:00,
2013-03-14 11:05:00,51.6,36.4,30.12,West,272,6.0,15.0,56,0.00,CLR,SKC,0.00,WeatherDisplay:10.37,2013-03-14 16:05:00,
2013-03-14 11:10:00,52.5,36.8,30.12,WSW,238,7.0,10.0,55,0.00,CLR,SKC,0.00,WeatherDisplay:10.37,2013-03-14 16:10:00,
2013-03-14 11:15:00,52.9,36.7,30.12,SW,229,8.0,13.0,54,0.00,CLR,SKC,0.00,WeatherDisplay:10.37,2013-03-14 16:15:00,
2013-03-14 11:20:00,53.5,37.7,30.12,WSW,245,5.0,10.0,55,0.00,CLR,SKC,0.00,WeatherDisplay:10.37,2013-03-14 16:20:00,
2013-03-14 11:30:00,54.6,38.3,30.12,West,271,7.0,12.0,54,0.00,CLR,SKC,0.00,WeatherDisplay:10.37,2013-03-14 16:30:00,
2013-03-14 11:35:00,55.0,38.2,30.11,West,261,8.0,13.0,53,0.00,CLR,SKC,0.00,WeatherDisplay:10.37,2013-03-14 16:35:00,
2013-03-14 11:40:00,55.7,38.8,30.11,WSW,246,7.0,10.0,53,0.00,CLR,SKC,0.00,WeatherDisplay:10.37,2013-03-14 16:40:00,
2013-03-14 11:45:00,56.4,39.4,30.11,WSW,253,3.0,15.0,53,0.00,CLR,SKC,0.00,WeatherDisplay:10.37,2013-03-14 16:45:00,
2013-03-14 11:50:00,57.4,39.9,30.12,West,272,2.0,7.0,52,0.00,CLR,SKC,0.00,WeatherDisplay:10.37,2013-03-14 16:50:00,
2013-03-14 11:55:00,58.3,39.7,30.11,West,271,6.0,12.0,50,0.00,CLR,SKC,0.00,WeatherDisplay:10.37,2013-03-14 16:55:00,
2013-03-14 12:00:00,58.5,39.4,30.11,West,279,6.0,18.0,49,0.00,CLR,SKC,0.00,WeatherDisplay:10.37,2013-03-14 17:00:00,
2013-03-14 12:05:00,59.2,40.5,30.11,West,277,7.0,10.0,50,0.00,CLR,SKC,0.00,WeatherDisplay:10.37,2013-03-14 17:05:00,
2013-03-14 12:10:00,59.5,40.3,30.11,WSW,252,6.0,10.0,49,0.00,CLR,SKC,0.00,WeatherDisplay:10.37,2013-03-14 17:10:00,
2013-03-14 12:15:00,59.7,40.5,30.11,WSW,251,5.0,12.0,49,0.00,CLR,SKC,0.00,WeatherDisplay:10.37,2013-03-14 17:15:00,
2013-03-14 12:20:00,59.8,40.1,30.10,WSW,242,8.0,15.0,48,0.00,CLR,SKC,0.00,WeatherDisplay:10.37,2013-03-14 17:20:00,
2013-03-14 12:25:00,59.9,40.2,30.10,WSW,252,7.0,13.0,48,0.00,CLR,SKC,0.00,WeatherDisplay:10.37,2013-03-14 17:25:00,
2013-03-14 12:30:00,60.5,40.7,30.10,WSW,255,6.0,12.0,48,0.00,CLR,SKC,0.00,WeatherDisplay:10.37,2013-03-14 17:30:00,
2013-03-14 12:35:00,61.2,40.8,30.10,West,280,6.0,12.0,47,0.00,CLR,SKC,0.00,WeatherDisplay:10.37,2013-03-14 17:35:00,
2013-03-14 12:45:00,61.8,41.3,30.10,WSW,258,7.0,15.0,47,0.00,CLR,SKC,0.00,WeatherDisplay:10.37,2013-03-14 17:45:00,
2013-03-14 12:55:00,62.3,40.7,30.11,WNW,300,8.0,12.0,45,0.00,CLR,SKC,0.00,WeatherDisplay:10.37,2013-03-14 17:55:00,
2013-03-14 13:00:00,62.6,41.0,30.11,WNW,283,7.0,15.0,45,0.00,CLR,SKC,0.00,WeatherDisplay:10.37,2013-03-14 18:00:00,
2013-03-14 13:05:00,62.7,41.1,30.11,West,277,7.0,15.0,45,0.00,CLR,SKC,0.00,WeatherDisplay:10.37,2013-03-14 18:05:00,
2013-03-14 13:10:00,63.0,40.7,30.11,WNW,287,7.0,13.0,44,0.00,CLR,SKC,0.00,WeatherDisplay:10.37,2013-03-14 18:10:00,
2013-03-14 13:15:00,62.8,41.1,30.11,WNW,295,7.0,13.0,45,0.00,CLR,SKC,0.00,WeatherDisplay:10.37,2013-03-14 18:15:00,
2013-03-14 13:20:00,62.9,41.8,30.10,WNW,301,5.0,13.0,46,0.00,CLR,SKC,0.00,WeatherDisplay:10.37,2013-03-14 18:20:00,
2013-03-14 13:25:00,63.1,41.4,30.10,WNW,298,6.0,16.0,45,0.00,CLR,SKC,0.00,WeatherDisplay:10.37,2013-03-14 18:25:00,
2013-03-14 13:30:00,63.5,41.8,30.10,West,269,7.0,12.0,45,0.00,CLR,SKC,0.00,WeatherDisplay:10.37,2013-03-14 18:30:00,
2013-03-14 13:35:00,63.9,42.1,30.10,West,261,5.0,10.0,45,0.00,CLR,SKC,0.00,WeatherDisplay:10.37,2013-03-14 18:35:00,
2013-03-14 13:45:00,64.5,42.7,30.10,WNW,284,2.0,8.0,45,0.00,CLR,SKC,0.00,WeatherDisplay:10.37,2013-03-14 18:45:00,
2013-03-14 13:50:00,64.9,41.9,30.09,WNW,301,6.0,12.0,43,0.00,CLR,SKC,0.00,WeatherDisplay:10.37,2013-03-14 18:50:00,
2013-03-14 13:55:00,65.2,42.1,30.09,NW,305,6.0,7.0,43,0.00,CLR,SKC,0.00,WeatherDisplay:10.37,2013-03-14 18:55:00,
2013-03-14 14:05:00,66.4,41.9,30.09,West,277,6.0,10.0,41,0.00,CLR,SKC,0.00,WeatherDisplay:10.37,2013-03-14 19:05:00,
2013-03-14 14:10:00,66.5,42.1,30.09,WNW,293,7.0,12.0,41,0.00,CLR,SKC,0.00,WeatherDisplay:10.37,2013-03-14 19:10:00,
2013-03-14 14:15:00,66.5,42.7,30.09,WNW,289,3.0,12.0,42,0.00,CLR,SKC,0.00,WeatherDisplay:10.37,2013-03-14 19:15:00,
2013-03-14 14:20:00,67.2,42.7,30.09,WNW,289,2.0,8.0,41,0.00,CLR,SKC,0.00,WeatherDisplay:10.37,2013-03-14 19:20:00,
2013-03-14 14:30:00,67.5,42.3,30.08,West,279,3.0,8.0,40,0.00,CLR,SKC,0.00,WeatherDisplay:10.37,2013-03-14 19:30:00,
2013-03-14 14:35:00,67.4,42.2,30.08,West,270,3.0,8.0,40,0.00,CLR,SKC,0.00,WeatherDisplay:10.37,2013-03-14 19:35:00,
2013-03-14 14:40:00,67.9,42.7,30.08,West,264,5.0,11.0,40,0.00,CLR,SKC,0.00,WeatherDisplay:10.37,2013-03-14 19:40:00,
2013-03-14 14:45:00,68.3,43.0,30.08,West,263,2.0,8.0,40,0.00,CLR,SKC,0.00,WeatherDisplay:10.37,2013-03-14 19:45:00,
2013-03-14 14:50:00,68.5,41.9,30.08,West,276,5.0,7.0,38,0.00,CLR,SKC,0.00,WeatherDisplay:10.37,2013-03-14 19:50:00,
2013-03-14 14:55:00,68.6,42.0,30.08,WNW,293,3.0,13.0,38,0.00,CLR,SKC,0.00,WeatherDisplay:10.37,2013-03-14 19:55:00,
2013-03-14 15:00:00,68.7,42.1,30.08,WNW,283,6.0,10.0,38,0.00,CLR,SKC,0.00,WeatherDisplay:10.37,2013-03-14 20:00:00,
2013-03-14 15:10:00,68.6,42.0,30.08,WNW,297,2.0,10.0,38,0.00,CLR,SKC,0.00,WeatherDisplay:10.37,2013-03-14 20:10:00,
2013-03-14 15:15:00,69.0,42.3,30.08,WNW,288,2.0,12.0,38,0.00,CLR,SKC,0.00,WeatherDisplay:10.37,2013-03-14 20:15:00,
2013-03-14 15:20:00,69.1,42.4,30.08,WNW,300,3.0,11.0,38,0.00,CLR,SKC,0.00,WeatherDisplay:10.37,2013-03-14 20:20:00,
2013-03-14 15:25:00,68.9,41.5,30.08,WNW,295,3.0,9.0,37,0.00,CLR,SKC,0.00,WeatherDisplay:10.37,2013-03-14 20:25:00,
2013-03-14 15:30:00,69.1,42.4,30.08,West,268,5.0,13.0,38,0.00,CLR,SKC,0.00,WeatherDisplay:10.37,2013-03-14 20:30:00,
2013-03-14 15:40:00,70.1,43.3,30.08,WNW,295,5.0,8.0,38,0.00,CLR,SKC,0.00,WeatherDisplay:10.37,2013-03-14 20:40:00,
2013-03-14 15:45:00,70.1,42.6,30.08,WNW,297,3.0,7.0,37,0.00,CLR,SKC,0.00,WeatherDisplay:10.37,2013-03-14 20:45:00,
2013-03-14 15:50:00,70.0,42.5,30.07,West,274,2.0,8.0,37,0.00,CLR,SKC,0.00,WeatherDisplay:10.37,2013-03-14 20:50:00,
2013-03-14 15:55:00,70.1,42.6,30.07,WNW,290,3.0,12.0,37,0.00,CLR,SKC,0.00,WeatherDisplay:10.37,2013-03-14 20:55:00,
2013-03-14 16:00:00,70.4,42.9,30.07,WNW,297,3.0,8.0,37,0.00,CLR,SKC,0.00,WeatherDisplay:10.37,2013-03-14 21:00:00,
2013-03-14 16:05:00,70.6,43.1,30.07,West,272,1.0,7.0,37,0.00,CLR,SKC,0.00,WeatherDisplay:10.37,2013-03-14 21:05:00,
2013-03-14 16:15:00,71.4,42.3,30.07,WNW,289,1.0,5.0,35,0.00,CLR,SKC,0.00,WeatherDisplay:10.37,2013-03-14 21:15:00,
2013-03-14 16:20:00,71.6,41.7,30.07,WNW,283,6.0,11.0,34,0.00,CLR,SKC,0.00,WeatherDisplay:10.37,2013-03-14 21:20:00,
2013-03-14 16:30:00,71.5,42.4,30.07,WNW,303,2.0,5.0,35,0.00,CLR,SKC,0.00,WeatherDisplay:10.37,2013-03-14 21:30:00,
2013-03-14 16:35:00,71.8,41.9,30.07,NW,305,1.0,5.0,34,0.00,CLR,SKC,0.00,WeatherDisplay:10.37,2013-03-14 21:35:00,
2013-03-14 16:45:00,72.4,41.7,30.06,West,269,5.0,7.0,33,0.00,CLR,SKC,0.00,WeatherDisplay:10.37,2013-03-14 21:45:00,
2013-03-14 16:55:00,71.9,42.0,30.06,NNW,334,3.0,10.0,34,0.00,CLR,SKC,0.00,WeatherDisplay:10.37,2013-03-14 21:55:00,
2013-03-14 17:05:00,71.8,41.9,30.06,WNW,301,2.0,5.0,34,0.00,CLR,SKC,0.00,WeatherDisplay:10.37,2013-03-14 22:05:00,
2013-03-14 17:10:00,72.3,41.6,30.06,West,279,2.0,5.0,33,0.00,CLR,SKC,0.00,WeatherDisplay:10.37,2013-03-14 22:10:00,
2013-03-14 17:15:00,72.2,41.5,30.06,WNW,293,5.0,7.0,33,0.00,CLR,SKC,0.00,WeatherDisplay:10.37,2013-03-14 22:15:00,
2013-03-14 17:20:00,72.4,42.4,30.06,WNW,303,1.0,7.0,34,0.00,CLR,SKC,0.00,WeatherDisplay:10.37,2013-03-14 22:20:00,
2013-03-14 17:25:00,72.6,41.9,30.06,WNW,290,2.0,7.0,33,0.00,CLR,SKC,0.00,WeatherDisplay:10.37,2013-03-14 22:25:00,
2013-03-14 17:30:00,72.1,41.4,30.06,North,349,2.0,7.0,33,0.00,CLR,SKC,0.00,WeatherDisplay:10.37,2013-03-14 22:30:00,
2013-03-14 17:35:00,71.5,41.7,30.06,North,357,2.0,8.0,34,0.00,CLR,SKC,0.00,WeatherDisplay:10.37,2013-03-14 22:35:00,
2013-03-14 17:40:00,71.5,41.6,30.06,NNW,348,1.0,3.0,34,0.00,CLR,SKC,0.00,WeatherDisplay:10.37,2013-03-14 22:40:00,
2013-03-14 17:45:00,71.7,41.8,30.06,NW,310,1.0,5.0,34,0.00,CLR,SKC,0.00,WeatherDisplay:10.37,2013-03-14 22:45:00,
2013-03-14 17:50:00,71.4,42.3,30.06,NNW,332,1.0,3.0,35,0.00,CLR,SKC,0.00,WeatherDisplay:10.37,2013-03-14 22:50:00,
2013-03-14 17:55:00,71.5,41.7,30.06,NW,321,2.0,7.0,34,0.00,CLR,SKC,0.00,WeatherDisplay:10.37,2013-03-14 22:55:00,